This is the latest recevied weather packets stored in our database for station/object KD5UMO-1. If no packets are shown the sender has not sent any weather packets the latest 10 day(s).
| Time | Temp. | Humidity | Pressure | Rain* | Wind** | Luminosity | Snow |
|---|---|---|---|---|---|---|---|
| 1777681174 | 17.78° C | 62% | 1016.3 hPa | 0 mm | - | 33 W/m² | - |
| 1777680872 | 17.78° C | 62% | 1016.5 hPa | 0 mm | - | 42 W/m² | - |
| 1777680570 | 17.78° C | 61% | 1016.2 hPa | 0 mm | - | 43 W/m² | - |
| 1777680268 | 17.78° C | 61% | 1016.2 hPa | 0 mm | - | 48 W/m² | - |
| 1777679964 | 17.78° C | 61% | 1016.2 hPa | 0 mm | - | 49 W/m² | - |
| 1777679660 | 17.78° C | 61% | 1016 hPa | 0 mm | - | 48 W/m² | - |
| 1777679354 | 17.78° C | 59% | 1016 hPa | 0 mm | - | 51 W/m² | - |
| 1777679052 | 17.78° C | 59% | 1015.9 hPa | 0 mm | - | 62 W/m² | - |
| 1777678750 | 17.78° C | 59% | 1016 hPa | 0 mm | - | 68 W/m² | - |
| 1777678447 | 17.78° C | 58% | 1015.9 hPa | 0 mm | - | 78 W/m² | - |
| 1777678143 | 17.78° C | 57% | 1015.9 hPa | 0 mm | - | 104 W/m² | - |
| 1777677840 | 18.33° C | 58% | 1015.6 hPa | 0 mm | - | 109 W/m² | - |
| 1777677538 | 18.33° C | 57% | 1015.8 hPa | 0 mm | - | 97 W/m² | - |
| 1777677235 | 18.33° C | 57% | 1015.5 hPa | 0 mm | - | 127 W/m² | - |
| 1777676934 | 18.33° C | 57% | 1015.6 hPa | 0 mm | - | 116 W/m² | - |
| 1777676633 | 18.33° C | 57% | 1015.6 hPa | 0 mm | - | 105 W/m² | - |
| 1777676329 | 18.33° C | 56% | 1015.3 hPa | 0 mm | - | 99 W/m² | - |
| 1777676027 | 18.33° C | 57% | 1015.6 hPa | 0 mm | - | 107 W/m² | - |
| 1777675723 | 18.33° C | 57% | 1015.4 hPa | 0 mm | - | 117 W/m² | - |
| 1777675421 | 18.33° C | 57% | 1015.5 hPa | 0 mm | - | 118 W/m² | - |
| 1777675117 | 18.33° C | 57% | 1015.7 hPa | 0 mm | - | 130 W/m² | - |
| 1777674813 | 18.33° C | 56% | 1015.5 hPa | 0 mm | - | 151 W/m² | - |
| 1777674509 | 18.33° C | 56% | 1015.4 hPa | 0 mm | - | 140 W/m² | - |
| 1777674207 | 18.33° C | 56% | 1015.7 hPa | 0 mm | - | 141 W/m² | - |
| 1777673903 | 18.33° C | 55% | 1015.4 hPa | 0 mm | - | 158 W/m² | - |
* Rain latest hour (hover to see other rain measurements)
** Current wind speed in m/s (hover to see current wind gust speed)